Weather in Marjina Gorka

Belarus     53˚30′42″N   28˚08′51″E
temp.,
°C
wind,
m/s
gust,
m/s
humid.,
%
clouds,
%
prec.,
mm/h
press.,
hPa
HPBL,
m
28 november, sat
sat2800:00+1˚wsw389569 0.1 1014306
03:00wnw249384 0.4 1015272
06:00−1˚nnw259679 0.1 1015276
09:00−2˚n239671 0.1 1016127
12:00nne228219 0.0 1017403
15:00ne227644 0.0 1017557
18:00ne238188 0.0 1018430
21:00−1˚ne249593 0.1 1019197
29 november, sun
sun2900:00−1˚ene369890 0.1 1019209
03:00+1˚ene489795 0.6 1020399
06:00+1˚ene3597100 0.9 1019259
09:00ne3597100 2.2 1019283
12:00ene239596 0.7 1019258
15:00+1˚sse119498 0.8 1019185
18:00s119993 0.1 101923
21:00−2˚se129681 0.1 102122
30 november, mon
mon3000:00−1˚se2497100 0.1 1021174
03:00−1˚se2399100 0.4 1022158
06:00−2˚ssw239888 0.5 1022108
09:00−3˚ssw259683 0.5 1024167
12:00−1˚ssw348941 0.0 1024359
15:00ssw348559 0.1 1025556
18:00−1˚sw358999 0.1 1025438
21:00−1˚wsw3687100 0.1 1027371
1 december, tue
tue100:00−1˚sw2585100 0.1 1027411
03:00−1˚ssw2490100 0.1 1027211
06:00−2˚ssw229481 0.0 102840
09:00−3˚ssw229763 0.0 102956
12:00−2˚ssw23853 0.0 1029311
15:00−1˚ssw23814 0.0 1029478
18:00−3˚sse22910 0.0 103023
21:00−3˚se22920 0.0 103131
2 december, wed
wed200:00−4˚se12920 0.0 103124
03:00−4˚ese22930 0.0 103127
06:00−4˚e22920 0.0 103033
09:00−5˚ne22910 0.0 103036
12:00−3˚ene23810 0.0 1030197
15:00−2˚ne238715 0.0 1029242
18:00−3˚ene229760 0.0 102939
21:00−3˚ese119763 0.1 102921